Location: Newark
(34.6000°S, 58.3833°W)
Time: 14:51:14
(UTC+00:00)

ISS - Visible Passes

Search period start: 21 October 2019 00:00
Search period end: 31 October 2019 00:00
Orbit: 411 x 421 km, 51.6° (Epoch: 21 October)

Date Brightness Start Highest point End Pass type
(mag) Time Alt. Az. Time Alt. Az. Time Alt. Az.
21 Oct -0.5 00:17:00 10° SW 00:18:31 12° SSW 00:20:01 10° S visible
21 Oct -0.9 23:27:19 10° WSW 23:29:44 18° SSW 23:32:10 10° SSE visible
22 Oct -1.6 22:38:03 10° W 22:41:00 28° SW 22:44:00 10° SSE visible
24 Oct -0.7 22:39:12 10° WSW 22:40:53 13° SSW 22:42:34 10° S visible
30 Oct -0.4 01:06:38 10° S 01:06:47 11° S 01:06:47 11° S visible
